Kuchera_Ratio
0.0 0.0 0.0 0.0 0.0 0.0 0.0 0.0 0.0 0.0 0.0 0.0 0.0 0.0 0.0 0.0 0.0 0.0 0.0 0.0 0.0 0.0 0.0 0.0 0.0 0.0 0.0 0.0 0.0 0.0 0.0 0.0 0.0 1.0 1.5 1.9 4.3 4.5 3.6 2.5 1.9 0.8 1.1 9.0 5.4 8.9 7.9 0.0 0.0 0.0 0.0 0.0 0.0 0.0
0.0 0.0 0.0 0.0 0.0 0.0 0.0 0.0 0.0 0.0 0.0 0.0 0.0 0.0 0.0 0.0 0.0 0.0 0.0 0.0 0.0 0.0 0.0 0.0 0.0 0.0 0.0 0.0 0.0 0.0 0.0 0.0 0.0 0.0 0.0 0.0 3.3 4.0 2.9 9.1 0.0 2.6 0.0 0.0 0.0 0.0 0.0 0.0 0.0 0.0 0.0 0.0 0.0 0.0
0.0 0.0 0.0 0.0 0.0 0.0 0.0 0.0 0.0 0.0 0.0 0.0 0.0 0.0 0.0 0.0 0.0 0.0 0.0 0.0 0.0 0.0 0.0 0.0 0.0 0.0 0.0 0.0 0.0 0.0 0.0 0.0 0.0 0.0 0.0 0.0 3.0 0.0 2.5 3.5 1.0 0.0 0.0 0.0 0.0 0.0 0.0 0.0 0.0 0.0 0.0 0.0 0.0 0.0
0.0 0.0 0.0 0.0 0.0 0.0 0.0 0.0 0.0 0.0 0.0 0.0 0.0 0.0 0.0 0.0 0.0 0.0 0.0 0.0 0.0 0.0 0.0 0.0 0.0 0.0 0.0 0.0 0.0 0.0 0.0 0.0 0.0 0.0 0.0 0.0 0.4 0.0 0.9 0.0 0.0 0.0 0.0 0.0 0.0 0.0 0.0 0.0 0.0 0.0 0.0 0.0 0.0 0.0
0.0 0.0 0.0 0.0 0.0 0.0 0.0 0.0 0.0 0.0 0.0 0.0 0.0 0.0 0.0 0.0 0.0 0.0 0.0 0.0 0.0 0.0 0.0 0.0 0.0 0.0 0.0 0.0 0.0 0.0 0.0 0.0 0.0 0.0 0.0 0.0 0.0 0.0 0.0 0.0 0.0 0.0 0.0 0.0 0.0 0.0 0.0 0.0 0.0 0.0 0.0 0.0 0.0 0.0
0.0 0.0 0.0 0.0 0.0 0.0 0.0 0.0 0.0 0.0 0.0 0.0 0.0 0.0 0.0 0.0 0.0 0.0 0.0 0.0 0.0 0.0 0.0 0.0 0.0 0.0 0.0 0.0 0.0 0.0 0.0 0.0 0.0 0.0 0.0 0.0 0.0 0.0 1.5 2.9 0.0 0.0 0.0 0.0 0.0 0.0 0.0 0.0 0.0 0.0 0.0 0.0 0.0 0.0
0.0 0.0 0.0 0.0 0.0 0.0 0.0 0.0 0.0 0.0 0.0 0.0 0.0 0.0 0.0 0.0 0.0 0.0 0.0 0.0 0.0 0.0 0.0 0.9 0.0 0.0 0.0 0.0 0.0 0.0 0.0 0.0 0.0 0.0 0.0 0.0 0.0 0.0 0.0 3.3 0.0 0.0 0.0 0.0 0.0 0.0 0.0 0.0 0.0 0.0 0.0 0.0 0.0 0.0
0.0 0.0 0.0 0.0 0.0 0.0 0.0 0.0 0.0 0.0 0.0 0.0 0.0 0.0 0.0 0.0 0.0 0.0 0.0 0.0 0.0 0.0 0.0 1.9 2.3 0.0 0.0 0.0 0.0 0.0 0.0 0.0 0.0 0.0 0.0 0.0 0.0 0.0 0.9 0.0 0.0 0.0 0.0 0.0 0.0 0.0 0.0 0.0 0.0 0.0 0.0 0.0 0.0 0.0
0.0 0.0 0.0 0.0 0.0 0.0 0.0 0.0 0.0 0.0 0.0 0.0 0.0 0.0 0.0 0.0 0.0 0.0 0.0 0.0 0.0 0.0 0.0 1.0 3.5 5.5 0.0 0.0 0.0 0.0 0.0 0.0 0.0 0.0 0.0 0.0 0.3 3.9 0.0 0.0 0.0 0.0 0.0 0.0 0.0 0.0 0.0 0.0 0.0 0.0 0.0 0.0 0.0 0.0
0.0 0.0 0.0 0.0 0.0 0.0 0.0 0.0 0.0 0.0 0.0 0.0 0.0 0.4 1.3 0.0 0.0 0.0 0.0 0.0 0.0 0.0 0.0 0.0 0.0 1.0 0.0 0.0 0.0 0.0 0.0 0.7 5.7 0.0 0.0 1.7 0.8 0.0 0.0 0.0 0.0 0.0 0.0 0.0 0.0 0.0 0.0 0.0 0.0 0.0 0.0 0.0 0.0 0.0
0.0 0.0 0.0 0.0 0.0 0.0 0.0 0.0 0.0 0.0 0.0 1.2 3.3 6.4 0.8 0.0 0.0 0.0 2.3 1.3 0.0 3.8 0.0 0.0 0.0 0.2 0.0 0.6 0.5 0.3 2.9 4.3 6.8 5.3 2.5 5.8 2.1 0.0 0.0 0.0 0.0 0.0 0.0 0.0 0.0 0.0 0.0 0.0 0.0 0.0 0.0 0.0 0.0 0.0
0.0 0.0 0.0 0.0 0.0 0.0 0.0 0.0 0.0 0.0 0.0 0.0 0.1 0.0 2.6 5.5 4.4 6.5 7.3 5.0 2.9 3.6 1.2 0.0 0.6 0.0 0.0 0.0 0.5 1.7 3.6 5.5 7.2 3.5 5.5 7.8 0.0 0.0 0.0 0.0 0.0 0.0 0.0 0.0 0.0 0.0 0.0 0.0 0.0 0.0 0.0 0.0 0.0 0.0
0.0 0.0 0.0 0.0 0.0 0.0 0.0 0.0 0.0 0.0 0.0 0.0 3.5 8.6 9.2 8.5 11.0 9.7 11.4 7.3 7.2 3.6 1.4 1.1 3.0 0.0 0.0 0.0 0.8 2.3 6.8 7.2 6.2 9.6 8.2 0.6 0.0 0.0 0.0 0.0 0.0 0.0 0.0 0.0 0.0 0.0 0.0 0.0 0.0 0.0 0.0 0.0 0.0 0.9
0.0 0.0 0.0 0.0 0.0 0.0 0.0 0.0 0.0 0.0 0.0 8.5 11.9 13.9 13.1 11.3 9.1 8.6 8.0 6.1 2.2 0.7 0.0 0.0 1.2 0.5 0.4 2.2 3.5 7.6 6.5 8.2 11.2 12.2 5.4 0.0 0.0 0.0 0.0 0.0 0.0 0.0 0.0 0.0 0.0 0.0 0.0 0.0 0.0 0.0 0.0 0.0 0.0 2.2
0.0 0.0 0.0 0.0 0.0 0.0 0.0 0.0 0.0 0.0 3.9 10.7 10.0 13.8 10.8 7.2 7.4 7.2 6.8 5.2 4.4 1.7 0.0 0.0 0.5 0.0 2.3 4.5 7.2 8.9 12.1 12.2 9.9 4.3 0.0 0.0 0.0 0.0 0.0 0.0 0.0 0.0 0.0 0.0 0.0 0.0 0.0 0.0 0.0 0.0 0.3 1.0 2.1 3.4
0.0 0.0 0.0 0.0 0.0 0.0 0.0 0.0 0.0 1.3 6.1 10.3 10.4 12.1 6.5 8.3 7.9 7.4 6.3 7.0 2.1 1.3 0.0 0.0 0.2 3.4 4.6 5.2 7.5 6.8 8.5 8.7 0.0 0.0 0.0 0.0 0.0 0.0 0.0 0.0 0.0 0.0 0.0 0.0 0.0 0.0 0.0 0.0 0.0 1.2 3.9 4.3 4.6 4.8
0.0 0.9 0.0 0.0 0.0 0.0 0.0 2.8 5.1 8.2 9.5 10.4 9.3 6.1 8.0 8.2 8.2 7.5 3.1 2.1 0.0 1.7 2.0 0.7 6.0 5.7 7.3 7.2 7.3 6.8 3.9 0.0 0.0 0.0 0.0 0.0 0.0 0.0 0.6 1.4 1.8 1.0 0.5 0.6 0.8 1.4 0.6 1.4 1.9 3.1 4.2 6.2 7.5 8.7
1.1 1.1 0.0 0.0 0.0 2.0 3.7 4.0 8.2 11.4 12.8 11.9 13.2 11.3 7.4 6.7 6.6 4.8 1.8 0.0 2.0 2.9 4.0 1.8 3.2 7.1 6.3 6.8 5.2 0.0 0.0 0.0 0.0 0.0 0.0 0.0 0.0 0.1 2.1 1.8 2.6 2.5 2.6 2.6 2.2 2.1 2.0 2.6 3.2 4.7 5.0 6.0 8.1 9.3
0.4 0.0 0.0 0.0 0.0 5.5 10.7 7.7 7.4 14.0 14.5 9.4 9.3 12.3 7.9 6.9 4.2 3.2 3.1 0.8 0.1 1.1 3.1 3.4 3.9 6.8 5.5 0.1 0.0 0.0 0.0 0.0 0.0 0.0 0.0 0.0 0.7 1.9 4.2 4.3 4.1 3.6 3.2 2.9 3.1 3.3 3.9 3.5 3.3 5.1 6.1 7.1 8.2 9.0
0.0 0.0 0.0 0.0 0.0 7.6 13.8 13.4 12.1 12.7 14.5 13.6 12.1 11.0 12.9 10.8 6.8 6.1 6.0 5.4 5.7 4.3 6.4 7.5 4.6 1.7 1.8 0.0 0.0 0.0 0.0 0.0 0.0 0.0 0.3 1.7 2.1 2.9 5.4 5.1 5.0 5.0 4.9 4.6 4.2 3.7 4.6 6.4 6.9 6.9 7.6 8.9 8.6 9.7
1.9 3.3 0.0 4.9 5.7 6.7 10.3 13.4 13.6 13.5 12.2 13.4 14.6 13.7 13.1 12.3 8.3 8.1 7.7 7.9 7.8 7.9 7.9 8.0 5.7 3.8 2.9 2.0 0.7 0.0 0.0 0.0 0.0 0.0 0.1 0.5 4.3 5.3 7.0 6.8 5.8 5.8 4.2 4.8 4.9 7.2 6.2 6.0 8.6 9.7 9.9 10.8 12.0 12.7
6.4 0.0 7.4 9.8 11.5 13.0 13.5 12.2 14.0 13.8 14.5 14.5 14.4 13.9 14.6 14.9 13.3 12.7 11.1 10.7 12.2 12.4 12.2 10.6 8.4 6.6 5.1 4.5 2.9 0.7 0.4 0.4 0.2 0.6 1.1 2.9 2.6 6.7 7.9 7.7 7.8 7.4 6.4 5.5 4.8 5.4 7.7 8.5 9.6 11.1 11.9 12.0 12.9 13.8
4.2 8.3 11.5 12.4 13.3 13.6 14.0 14.1 14.5 14.9 15.3 15.3 15.5 15.8 15.9 15.8 13.4 11.6 13.9 14.5 13.9 12.3 12.1 12.5 10.5 9.8 8.5 6.5 5.2 3.6 3.0 2.4 3.1 4.0 5.2 6.1 6.0 7.5 9.3 8.3 8.0 4.4 6.0 7.0 5.9 6.5 8.3 10.7 11.9 12.1 12.7 13.5 13.8 14.1
5.3 12.5 13.9 13.8 14.7 15.3 15.1 15.2 15.9 16.1 15.8 16.5 16.7 15.9 15.8 16.3 14.1 14.9 15.5 15.8 14.9 14.2 15.0 14.3 12.5 12.6 10.4 7.9 6.8 5.4 5.9 5.6 6.5 9.7 9.6 9.5 8.9 10.1 10.5 8.9 8.9 6.2 4.2 5.9 8.9 9.4 10.1 12.0 12.4 13.0 13.5 13.8 14.3 14.9
14.2 14.7 15.5 16.0 16.1 16.1 15.8 16.1 16.6 16.9 17.4 17.6 17.8 17.2 17.0 15.0 17.1 16.8 17.8 17.5 17.1 16.5 16.0 15.8 15.1 13.1 13.7 13.3 12.5 11.8 12.0 10.1 11.4 12.3 12.2 12.2 10.6 10.3 11.6 11.0 9.7 9.0 7.4 6.3 9.7 10.7 12.0 12.2 12.9 13.7 14.1 14.7 15.1 15.7
16.5 16.0 16.1 15.8 16.4 16.6 16.4 16.8 17.3 18.0 18.6 18.8 18.1 17.8 16.2 17.6 18.1 19.5 19.5 19.8 19.5 18.7 17.6 16.8 16.4 15.6 14.5 13.8 13.6 13.9 13.6 12.6 12.9 13.2 13.0 12.4 12.3 12.1 11.5 11.3 11.8 12.7 11.0 9.3 8.6 10.7 12.5 13.6 13.5 14.3 15.2 15.7 15.8 16.4
16.6 16.5 16.8 13.2 16.6 17.1 17.2 17.7 18.2 18.9 19.2 19.3 19.1 18.7 19.2 21.0 20.4 19.6 19.5 19.4 20.2 19.4 19.1 19.1 18.1 17.0 15.9 16.0 15.4 15.3 14.7 14.0 14.2 14.5 14.1 13.6 13.3 12.4 12.0 10.4 9.5 10.0 12.3 12.3 12.2 12.1 12.3 13.8 14.4 15.4 16.0 16.5 17.1 17.6
16.4 17.4 17.8 17.6 17.6 17.5 17.5 17.9 18.2 18.3 18.6 19.2 19.4 19.9 20.4 19.8 19.4 19.4 20.1 20.3 20.4 19.9 20.1 17.5 16.8 16.4 16.5 16.4 16.1 16.1 16.2 15.8 15.7 15.4 15.4 15.1 14.1 13.3 12.8 12.7 12.5 12.7 13.1 13.5 13.1 14.2 14.5 14.8 15.5 16.3 16.6 16.8 17.2 17.7
16.5 17.1 17.6 18.1 18.2 17.9 17.6 17.5 17.4 17.8 18.2 18.7 19.0 18.8 19.0 19.4 19.3 20.0 20.2 20.5 20.9 20.5 18.5 18.2 17.9 16.9 17.0 16.9 16.5 15.8 15.3 14.6 14.7 16.4 15.9 15.7 15.5 15.6 14.7 13.8 14.0 14.3 14.4 15.1 13.7 14.5 14.7 15.6 16.3 16.8 17.4 17.4 17.6 17.9
18.0 17.7 18.8 18.8 18.2 17.5 16.8 17.4 18.0 17.9 18.4 19.1 19.2 20.2 20.5 20.5 21.0 21.0 21.2 21.1 21.1 20.5 18.2 17.6 17.1 16.8 17.1 17.0 17.7 17.5 16.7 15.3 14.6 14.3 14.0 14.5 14.6 15.0 15.3 15.1 15.3 16.0 15.4 15.5 15.5 15.0 13.6 17.5 17.8 17.9 17.7 17.7 18.1 18.5
18.2 18.8 19.1 19.0 18.2 17.8 17.5 18.0 18.4 17.0 18.9 19.3 20.0 20.6 21.5 21.1 21.3 21.4 21.4 21.2 20.5 18.5 17.6 17.8 17.8 17.2 16.9 16.9 16.9 17.2 17.4 16.6 15.7 14.3 13.7 14.3 15.3 15.8 15.8 16.2 15.9 15.6 16.3 16.7 17.0 17.3 17.7 18.1 18.0 17.8 18.1 18.6 18.9 19.1
19.0 18.9 19.1 19.0 19.0 18.6 18.6 19.2 19.5 19.6 19.5 19.6 20.0 20.7 21.1 21.6 21.6 21.6 21.3 20.6 18.8 19.0 16.7 17.4 18.3 19.0 18.1 17.6 16.8 16.1 15.6 15.4 15.2 14.9 14.9 15.2 15.7 16.5 17.0 16.9 17.0 16.9 17.0 17.3 17.6 18.0 17.9 17.7 18.1 18.7 19.0 19.1 19.3 19.6
20.1 20.2 20.5 20.0 19.2 19.1 19.8 19.7 19.7 19.8 20.0 19.8 19.8 20.0 20.6 21.0 21.2 21.2 20.4 20.3 20.4 20.1 19.7 19.3 18.9 18.6 18.1 17.5 16.7 16.4 16.2 15.9 15.4 14.0 14.3 15.0 15.6 17.0 17.5 17.7 17.9 17.9 17.9 18.0 18.2 18.2 18.4 18.7 19.2 19.4 19.5 19.6 19.7 19.8